Location: Asheville, NC
(35.6000°N, 82.5500°W)
Time: 14:23:38
(UTC-04:00)

Vanguard 2 - Pass Details

Date: 14 December 2017
Orbit: 553 x 2939 km, 32.9° (Epoch: 16 July)

Event Time Altitude Azimuth Distance (km) Brightness Sun altitude
Rises 18:30:46 0° 271° (W) 3,563 12.4 -14.4°
Reaches altitude 10° 18:33:47 10° 267° (W) 2,339 11.3 -14.9°
Maximum altitude 18:38:47 56° 190° (S) 734 7.5 -15.9°
Enters shadow 18:41:20 21° 118° (ESE) 1,301 8.3 -16.4°
